Precipitable_Water
0.55 0.56 0.55 0.54 0.55 0.54 0.54 0.54 0.53 0.52 0.51 0.50 0.48 0.47 0.46 0.46 0.45 0.45 0.45 0.46 0.47 0.47 0.48 0.48 0.48 0.48 0.47 0.48 0.48 0.47 0.46 0.38 0.32 0.28 0.24 0.23 0.26 0.26 0.26 0.27 0.27 0.35 0.35 0.34 0.31 0.28 0.25 0.23 0.21 0.23 0.22 0.20 0.20 0.18 0.24 0.21 0.21 0.19 0.15 0.14 0.14 0.14 0.13 0.13 0.12 0.13 0.18 0.17 0.18 0.19 0.19 0.17 0.17 0.34 0.39 0.35 0.30 0.37 0.46 0.52 0.74 0.80 0.81 1.00 1.05 1.08 1.08 1.18
0.53 0.53 0.53 0.51 0.51 0.53 0.53 0.54 0.54 0.53 0.52 0.50 0.48 0.47 0.45 0.45 0.45 0.45 0.46 0.47 0.47 0.47 0.48 0.48 0.48 0.47 0.48 0.46 0.46 0.48 0.41 0.34 0.27 0.27 0.23 0.28 0.28 0.27 0.27 0.28 0.29 0.36 0.36 0.31 0.28 0.26 0.22 0.20 0.21 0.20 0.21 0.17 0.22 0.18 0.21 0.20 0.20 0.15 0.15 0.16 0.13 0.15 0.14 0.16 0.15 0.16 0.16 0.17 0.19 0.19 0.20 0.18 0.20 0.25 0.41 0.31 0.27 0.38 0.40 0.46 0.57 0.68 0.78 0.95 1.04 1.05 1.06 1.12
0.52 0.51 0.51 0.51 0.53 0.56 0.57 0.57 0.57 0.56 0.54 0.52 0.50 0.47 0.45 0.44 0.44 0.44 0.46 0.46 0.46 0.47 0.47 0.47 0.48 0.47 0.45 0.46 0.46 0.45 0.38 0.33 0.30 0.27 0.34 0.41 0.40 0.29 0.26 0.30 0.30 0.37 0.34 0.32 0.29 0.25 0.21 0.20 0.20 0.19 0.19 0.18 0.16 0.17 0.17 0.20 0.17 0.17 0.16 0.13 0.12 0.15 0.16 0.16 0.16 0.16 0.19 0.20 0.19 0.19 0.20 0.19 0.27 0.35 0.49 0.35 0.36 0.41 0.35 0.40 0.48 0.59 0.69 0.81 0.96 0.98 1.04 1.06
0.51 0.52 0.54 0.57 0.58 0.59 0.58 0.58 0.58 0.58 0.57 0.55 0.52 0.49 0.48 0.46 0.45 0.44 0.45 0.45 0.46 0.46 0.47 0.47 0.46 0.45 0.45 0.44 0.45 0.46 0.43 0.30 0.26 0.29 0.39 0.43 0.43 0.36 0.28 0.29 0.34 0.37 0.38 0.35 0.30 0.24 0.22 0.20 0.19 0.19 0.18 0.17 0.18 0.18 0.14 0.18 0.14 0.19 0.14 0.13 0.14 0.17 0.14 0.15 0.16 0.17 0.20 0.20 0.19 0.19 0.20 0.19 0.33 0.36 0.40 0.44 0.37 0.35 0.40 0.54 0.52 0.55 0.67 0.85 0.89 0.94 1.01 1.00
0.57 0.59 0.60 0.59 0.59 0.59 0.59 0.58 0.58 0.57 0.56 0.55 0.54 0.51 0.50 0.48 0.47 0.46 0.46 0.45 0.45 0.45 0.45 0.45 0.44 0.44 0.44 0.44 0.43 0.46 0.38 0.29 0.26 0.36 0.46 0.46 0.40 0.33 0.31 0.31 0.35 0.40 0.36 0.33 0.28 0.24 0.21 0.19 0.18 0.18 0.17 0.16 0.17 0.15 0.16 0.18 0.17 0.18 0.14 0.15 0.16 0.16 0.13 0.15 0.16 0.19 0.19 0.20 0.20 0.20 0.19 0.19 0.23 0.33 0.41 0.45 0.36 0.35 0.47 0.68 0.67 0.76 0.78 0.84 0.90 0.94 0.98 0.98
0.61 0.61 0.60 0.60 0.60 0.59 0.59 0.59 0.59 0.58 0.57 0.55 0.54 0.53 0.51 0.49 0.47 0.46 0.46 0.43 0.43 0.43 0.42 0.42 0.43 0.42 0.42 0.43 0.45 0.45 0.34 0.16 0.37 0.39 0.50 0.41 0.39 0.31 0.31 0.32 0.36 0.40 0.33 0.29 0.26 0.23 0.20 0.18 0.17 0.15 0.14 0.16 0.15 0.14 0.17 0.17 0.17 0.12 0.14 0.14 0.15 0.16 0.15 0.17 0.17 0.18 0.20 0.20 0.20 0.19 0.21 0.22 0.22 0.26 0.43 0.47 0.49 0.55 0.61 0.77 0.73 0.85 0.93 0.97 1.01 0.98 0.93 0.93
0.61 0.61 0.61 0.61 0.61 0.60 0.60 0.60 0.60 0.60 0.59 0.57 0.55 0.54 0.52 0.50 0.47 0.45 0.45 0.45 0.43 0.42 0.41 0.40 0.41 0.42 0.41 0.46 0.49 0.44 0.31 0.27 0.34 0.46 0.55 0.43 0.37 0.34 0.32 0.32 0.37 0.33 0.31 0.27 0.24 0.20 0.18 0.17 0.16 0.15 0.14 0.14 0.16 0.16 0.18 0.16 0.16 0.14 0.14 0.17 0.15 0.16 0.15 0.17 0.17 0.19 0.21 0.21 0.20 0.21 0.23 0.21 0.24 0.24 0.42 0.48 0.52 0.54 0.61 0.66 0.83 0.97 0.99 0.98 0.91 0.93 0.94 0.92
0.63 0.63 0.62 0.62 0.62 0.61 0.61 0.61 0.62 0.62 0.62 0.60 0.57 0.54 0.52 0.50 0.48 0.46 0.44 0.45 0.44 0.42 0.41 0.40 0.40 0.40 0.45 0.42 0.37 0.30 0.27 0.24 0.33 0.51 0.47 0.38 0.36 0.34 0.35 0.36 0.35 0.32 0.29 0.26 0.22 0.19 0.17 0.16 0.15 0.14 0.14 0.12 0.15 0.14 0.16 0.14 0.15 0.13 0.12 0.14 0.15 0.16 0.17 0.18 0.19 0.20 0.21 0.22 0.22 0.22 0.21 0.22 0.26 0.28 0.40 0.46 0.55 0.58 0.65 0.74 0.87 0.88 0.90 0.92 0.89 0.89 0.92 0.91
0.63 0.63 0.63 0.62 0.62 0.62 0.62 0.62 0.62 0.63 0.64 0.64 0.61 0.56 0.52 0.50 0.48 0.46 0.44 0.43 0.44 0.41 0.40 0.40 0.39 0.43 0.49 0.43 0.33 0.28 0.23 0.32 0.38 0.47 0.45 0.37 0.37 0.37 0.38 0.32 0.33 0.30 0.29 0.26 0.23 0.19 0.19 0.18 0.20 0.18 0.16 0.14 0.16 0.16 0.15 0.13 0.13 0.13 0.14 0.16 0.16 0.17 0.18 0.19 0.19 0.20 0.22 0.22 0.22 0.21 0.21 0.25 0.25 0.31 0.32 0.48 0.55 0.59 0.64 0.77 0.81 0.80 0.79 0.82 0.83 0.87 0.89 0.86
0.62 0.64 0.64 0.62 0.62 0.62 0.63 0.62 0.62 0.63 0.63 0.63 0.64 0.62 0.56 0.51 0.49 0.47 0.44 0.43 0.42 0.40 0.40 0.40 0.39 0.45 0.45 0.39 0.34 0.26 0.28 0.37 0.42 0.45 0.41 0.38 0.35 0.35 0.35 0.34 0.32 0.31 0.27 0.24 0.21 0.20 0.21 0.21 0.24 0.21 0.21 0.18 0.17 0.18 0.18 0.14 0.18 0.19 0.16 0.16 0.17 0.18 0.19 0.19 0.17 0.20 0.22 0.21 0.22 0.21 0.22 0.25 0.27 0.29 0.32 0.36 0.54 0.64 0.60 0.61 0.74 0.74 0.71 0.75 0.78 0.85 0.90 0.82
0.60 0.62 0.63 0.62 0.62 0.63 0.63 0.62 0.62 0.63 0.63 0.63 0.64 0.65 0.64 0.55 0.49 0.48 0.46 0.43 0.42 0.41 0.40 0.39 0.44 0.44 0.40 0.37 0.28 0.22 0.37 0.31 0.36 0.36 0.36 0.31 0.31 0.30 0.29 0.31 0.33 0.30 0.29 0.25 0.24 0.24 0.26 0.26 0.27 0.23 0.20 0.20 0.16 0.17 0.18 0.18 0.20 0.19 0.18 0.18 0.17 0.18 0.18 0.18 0.18 0.20 0.22 0.21 0.22 0.22 0.22 0.25 0.26 0.27 0.29 0.34 0.48 0.63 0.63 0.59 0.63 0.70 0.70 0.72 0.77 0.81 0.86 0.81
0.55 0.58 0.60 0.61 0.61 0.61 0.62 0.61 0.62 0.63 0.63 0.63 0.63 0.65 0.67 0.61 0.51 0.48 0.47 0.46 0.42 0.40 0.40 0.40 0.45 0.47 0.44 0.35 0.27 0.27 0.37 0.33 0.34 0.36 0.33 0.27 0.27 0.30 0.31 0.31 0.32 0.34 0.30 0.25 0.25 0.26 0.29 0.28 0.26 0.23 0.21 0.20 0.19 0.18 0.17 0.21 0.18 0.18 0.19 0.14 0.17 0.17 0.17 0.18 0.18 0.20 0.22 0.21 0.23 0.24 0.21 0.22 0.23 0.24 0.28 0.34 0.43 0.55 0.58 0.58 0.59 0.64 0.69 0.72 0.74 0.78 0.80 0.78
0.48 0.51 0.56 0.59 0.59 0.59 0.60 0.59 0.60 0.62 0.62 0.62 0.62 0.63 0.67 0.63 0.56 0.51 0.49 0.45 0.44 0.41 0.38 0.40 0.49 0.53 0.43 0.34 0.30 0.35 0.36 0.40 0.39 0.35 0.34 0.31 0.27 0.27 0.28 0.26 0.29 0.30 0.29 0.22 0.23 0.25 0.26 0.29 0.27 0.24 0.23 0.23 0.20 0.19 0.22 0.21 0.19 0.18 0.18 0.16 0.14 0.15 0.15 0.17 0.20 0.21 0.21 0.21 0.23 0.22 0.17 0.19 0.22 0.24 0.29 0.34 0.38 0.45 0.49 0.52 0.57 0.63 0.66 0.69 0.70 0.73 0.78 0.79
0.44 0.47 0.50 0.54 0.56 0.56 0.56 0.57 0.57 0.59 0.61 0.61 0.61 0.62 0.65 0.66 0.62 0.56 0.50 0.46 0.45 0.43 0.43 0.45 0.50 0.51 0.41 0.27 0.36 0.39 0.39 0.44 0.39 0.35 0.30 0.31 0.26 0.25 0.25 0.26 0.27 0.27 0.28 0.28 0.29 0.30 0.27 0.27 0.28 0.26 0.26 0.23 0.21 0.25 0.21 0.19 0.19 0.16 0.17 0.16 0.15 0.13 0.16 0.19 0.20 0.21 0.20 0.22 0.23 0.22 0.18 0.21 0.22 0.24 0.29 0.33 0.37 0.40 0.43 0.48 0.52 0.59 0.63 0.67 0.69 0.73 0.76 0.78
0.41 0.42 0.46 0.47 0.51 0.53 0.54 0.54 0.54 0.55 0.59 0.60 0.61 0.62 0.64 0.64 0.64 0.61 0.56 0.48 0.47 0.42 0.44 0.49 0.52 0.44 0.37 0.28 0.41 0.44 0.47 0.47 0.36 0.35 0.34 0.28 0.27 0.26 0.27 0.29 0.28 0.28 0.29 0.29 0.29 0.31 0.30 0.28 0.27 0.24 0.22 0.25 0.24 0.20 0.18 0.17 0.17 0.17 0.13 0.12 0.14 0.14 0.19 0.20 0.21 0.23 0.19 0.22 0.23 0.21 0.17 0.20 0.23 0.24 0.29 0.33 0.35 0.38 0.39 0.45 0.50 0.54 0.57 0.63 0.67 0.70 0.73 0.74
0.40 0.40 0.40 0.43 0.45 0.48 0.50 0.51 0.52 0.52 0.55 0.58 0.60 0.61 0.66 0.65 0.64 0.61 0.60 0.53 0.47 0.46 0.47 0.42 0.45 0.41 0.31 0.26 0.41 0.53 0.42 0.37 0.35 0.40 0.38 0.33 0.28 0.26 0.28 0.27 0.28 0.28 0.28 0.28 0.30 0.31 0.31 0.29 0.24 0.24 0.22 0.21 0.19 0.18 0.17 0.15 0.15 0.17 0.17 0.18 0.15 0.14 0.18 0.17 0.20 0.24 0.24 0.22 0.23 0.20 0.18 0.21 0.23 0.24 0.28 0.32 0.33 0.35 0.38 0.40 0.47 0.49 0.52 0.56 0.61 0.66 0.70 0.71
0.40 0.39 0.40 0.40 0.42 0.44 0.45 0.47 0.49 0.50 0.54 0.57 0.58 0.61 0.66 0.64 0.64 0.63 0.61 0.58 0.54 0.52 0.46 0.40 0.45 0.42 0.29 0.36 0.48 0.41 0.33 0.37 0.39 0.38 0.38 0.37 0.32 0.29 0.29 0.27 0.26 0.27 0.28 0.29 0.29 0.30 0.29 0.26 0.27 0.24 0.22 0.21 0.20 0.18 0.16 0.16 0.16 0.16 0.17 0.19 0.18 0.16 0.16 0.17 0.21 0.24 0.25 0.24 0.22 0.22 0.20 0.22 0.25 0.24 0.26 0.30 0.32 0.33 0.36 0.38 0.44 0.48 0.51 0.55 0.61 0.65 0.66 0.67
0.39 0.39 0.39 0.39 0.39 0.41 0.43 0.43 0.46 0.49 0.54 0.56 0.56 0.60 0.60 0.59 0.61 0.60 0.57 0.57 0.54 0.50 0.51 0.52 0.44 0.35 0.26 0.34 0.30 0.32 0.38 0.37 0.36 0.37 0.38 0.38 0.34 0.30 0.29 0.26 0.26 0.27 0.27 0.25 0.27 0.24 0.26 0.24 0.23 0.22 0.22 0.20 0.19 0.18 0.14 0.16 0.17 0.17 0.17 0.18 0.16 0.16 0.18 0.21 0.19 0.25 0.26 0.23 0.22 0.23 0.21 0.23 0.24 0.24 0.25 0.29 0.32 0.32 0.34 0.38 0.42 0.45 0.48 0.52 0.55 0.59 0.61 0.63
0.39 0.39 0.39 0.39 0.39 0.40 0.42 0.43 0.43 0.49 0.54 0.55 0.60 0.65 0.64 0.62 0.59 0.56 0.49 0.48 0.38 0.32 0.27 0.24 0.29 0.24 0.21 0.27 0.37 0.38 0.38 0.40 0.40 0.35 0.33 0.34 0.33 0.32 0.31 0.31 0.28 0.24 0.23 0.22 0.23 0.22 0.24 0.23 0.22 0.20 0.18 0.19 0.19 0.17 0.17 0.19 0.18 0.18 0.19 0.19 0.21 0.17 0.18 0.17 0.24 0.27 0.24 0.22 0.20 0.21 0.21 0.23 0.24 0.23 0.24 0.28 0.30 0.31 0.35 0.39 0.40 0.42 0.46 0.48 0.51 0.55 0.59 0.61
0.39 0.38 0.38 0.38 0.40 0.41 0.41 0.42 0.47 0.51 0.57 0.55 0.54 0.56 0.56 0.48 0.39 0.37 0.45 0.42 0.31 0.30 0.34 0.30 0.30 0.34 0.33 0.34 0.35 0.41 0.45 0.40 0.32 0.31 0.34 0.36 0.32 0.29 0.28 0.27 0.26 0.24 0.22 0.20 0.22 0.24 0.25 0.21 0.19 0.19 0.19 0.22 0.21 0.20 0.20 0.19 0.19 0.19 0.19 0.19 0.18 0.18 0.21 0.24 0.23 0.26 0.27 0.21 0.21 0.24 0.23 0.23 0.24 0.24 0.24 0.26 0.30 0.31 0.34 0.34 0.35 0.36 0.39 0.43 0.47 0.51 0.56 0.61
0.39 0.38 0.38 0.39 0.41 0.42 0.43 0.47 0.52 0.55 0.59 0.57 0.54 0.48 0.33 0.31 0.28 0.28 0.29 0.30 0.34 0.35 0.34 0.33 0.30 0.35 0.35 0.38 0.39 0.39 0.33 0.32 0.33 0.31 0.32 0.36 0.33 0.27 0.24 0.23 0.21 0.19 0.20 0.23 0.21 0.28 0.23 0.18 0.18 0.20 0.21 0.21 0.23 0.21 0.21 0.20 0.20 0.19 0.19 0.18 0.17 0.17 0.19 0.25 0.25 0.26 0.26 0.21 0.24 0.25 0.22 0.22 0.25 0.26 0.24 0.25 0.24 0.27 0.30 0.32 0.33 0.35 0.37 0.40 0.44 0.48 0.52 0.62
0.38 0.39 0.39 0.41 0.42 0.45 0.49 0.51 0.54 0.58 0.62 0.60 0.50 0.41 0.42 0.44 0.46 0.48 0.38 0.28 0.32 0.36 0.35 0.35 0.35 0.35 0.40 0.40 0.43 0.44 0.39 0.32 0.29 0.30 0.35 0.34 0.29 0.23 0.24 0.21 0.20 0.18 0.22 0.20 0.20 0.18 0.18 0.17 0.22 0.21 0.22 0.23 0.23 0.22 0.23 0.23 0.20 0.18 0.19 0.19 0.18 0.20 0.20 0.27 0.25 0.25 0.27 0.21 0.21 0.25 0.21 0.22 0.27 0.27 0.28 0.25 0.23 0.26 0.31 0.33 0.35 0.36 0.35 0.36 0.40 0.45 0.50 0.58
0.38 0.38 0.40 0.42 0.44 0.47 0.50 0.52 0.55 0.58 0.57 0.51 0.45 0.44 0.43 0.52 0.57 0.56 0.46 0.34 0.31 0.36 0.32 0.32 0.29 0.34 0.36 0.42 0.43 0.44 0.33 0.29 0.28 0.30 0.31 0.32 0.27 0.26 0.24 0.20 0.19 0.20 0.19 0.20 0.17 0.18 0.15 0.18 0.23 0.23 0.23 0.23 0.23 0.23 0.22 0.23 0.22 0.21 0.19 0.20 0.17 0.23 0.20 0.20 0.27 0.28 0.27 0.23 0.25 0.25 0.20 0.21 0.25 0.27 0.26 0.27 0.26 0.27 0.32 0.32 0.35 0.37 0.37 0.37 0.38 0.41 0.45 0.50
0.37 0.38 0.39 0.43 0.45 0.46 0.52 0.53 0.58 0.54 0.49 0.47 0.42 0.43 0.50 0.54 0.57 0.56 0.43 0.31 0.27 0.31 0.34 0.36 0.36 0.36 0.35 0.35 0.44 0.38 0.34 0.33 0.33 0.30 0.37 0.32 0.26 0.29 0.24 0.22 0.20 0.19 0.18 0.19 0.18 0.17 0.17 0.27 0.24 0.23 0.24 0.25 0.23 0.23 0.22 0.20 0.20 0.22 0.22 0.20 0.21 0.23 0.21 0.21 0.29 0.31 0.28 0.27 0.24 0.22 0.19 0.19 0.21 0.23 0.24 0.27 0.28 0.26 0.27 0.27 0.27 0.30 0.35 0.39 0.41 0.42 0.44 0.46
0.38 0.37 0.39 0.42 0.45 0.49 0.51 0.55 0.47 0.46 0.49 0.45 0.41 0.49 0.52 0.54 0.56 0.62 0.46 0.34 0.35 0.32 0.42 0.36 0.41 0.38 0.40 0.49 0.46 0.38 0.35 0.37 0.37 0.39 0.38 0.34 0.30 0.28 0.25 0.27 0.22 0.19 0.19 0.20 0.20 0.17 0.19 0.24 0.26 0.24 0.23 0.24 0.25 0.21 0.22 0.22 0.19 0.23 0.22 0.21 0.22 0.25 0.23 0.23 0.24 0.22 0.22 0.25 0.27 0.20 0.14 0.14 0.22 0.25 0.23 0.29 0.26 0.25 0.27 0.26 0.26 0.28 0.29 0.30 0.32 0.35 0.40 0.43
0.38 0.38 0.39 0.41 0.45 0.49 0.54 0.41 0.44 0.45 0.39 0.37 0.41 0.50 0.55 0.54 0.61 0.67 0.49 0.31 0.24 0.26 0.31 0.28 0.39 0.31 0.48 0.36 0.41 0.40 0.36 0.29 0.34 0.39 0.37 0.35 0.36 0.29 0.28 0.23 0.24 0.20 0.20 0.20 0.20 0.22 0.23 0.25 0.25 0.25 0.25 0.24 0.24 0.24 0.27 0.24 0.21 0.20 0.23 0.24 0.23 0.24 0.25 0.25 0.23 0.19 0.16 0.15 0.28 0.27 0.14 0.13 0.24 0.25 0.26 0.27 0.25 0.27 0.31 0.29 0.30 0.29 0.30 0.30 0.30 0.31 0.34 0.37
0.38 0.39 0.39 0.41 0.42 0.47 0.35 0.35 0.45 0.41 0.32 0.37 0.44 0.52 0.54 0.54 0.68 0.66 0.41 0.24 0.19 0.25 0.28 0.37 0.30 0.38 0.42 0.40 0.40 0.38 0.26 0.26 0.32 0.35 0.36 0.37 0.31 0.33 0.25 0.23 0.22 0.22 0.23 0.25 0.18 0.19 0.22 0.23 0.23 0.24 0.25 0.24 0.23 0.22 0.29 0.24 0.22 0.20 0.32 0.29 0.28 0.26 0.25 0.26 0.23 0.22 0.19 0.26 0.26 0.21 0.20 0.14 0.15 0.21 0.30 0.26 0.24 0.26 0.29 0.32 0.31 0.31 0.32 0.31 0.32 0.32 0.34 0.36
0.39 0.37 0.39 0.41 0.42 0.41 0.32 0.37 0.36 0.30 0.32 0.39 0.44 0.49 0.55 0.58 0.66 0.64 0.38 0.16 0.18 0.33 0.28 0.28 0.34 0.42 0.37 0.35 0.38 0.32 0.31 0.32 0.24 0.30 0.36 0.38 0.35 0.29 0.25 0.23 0.21 0.21 0.21 0.20 0.18 0.22 0.25 0.20 0.22 0.24 0.24 0.23 0.22 0.25 0.33 0.29 0.24 0.28 0.34 0.31 0.30 0.28 0.29 0.28 0.24 0.23 0.24 0.22 0.16 0.23 0.24 0.16 0.15 0.19 0.28 0.27 0.21 0.24 0.27 0.31 0.31 0.32 0.33 0.34 0.34 0.35 0.35 0.36
0.41 0.38 0.38 0.40 0.40 0.41 0.44 0.39 0.36 0.31 0.41 0.45 0.46 0.47 0.48 0.62 0.58 0.46 0.29 0.15 0.30 0.30 0.39 0.30 0.44 0.35 0.33 0.35 0.33 0.33 0.31 0.33 0.25 0.29 0.34 0.37 0.36 0.30 0.24 0.24 0.24 0.24 0.24 0.24 0.21 0.25 0.23 0.22 0.22 0.20 0.21 0.21 0.25 0.28 0.31 0.30 0.26 0.31 0.34 0.33 0.32 0.32 0.30 0.28 0.24 0.22 0.23 0.21 0.15 0.18 0.26 0.17 0.15 0.21 0.27 0.27 0.22 0.24 0.27 0.29 0.29 0.31 0.34 0.35 0.36 0.39 0.39 0.39
0.42 0.40 0.39 0.40 0.38 0.36 0.36 0.42 0.33 0.42 0.44 0.43 0.44 0.42 0.50 0.56 0.49 0.29 0.19 0.12 0.32 0.24 0.30 0.33 0.30 0.28 0.30 0.27 0.28 0.29 0.29 0.30 0.30 0.30 0.32 0.31 0.33 0.33 0.29 0.29 0.25 0.24 0.23 0.24 0.22 0.22 0.24 0.25 0.26 0.21 0.19 0.21 0.26 0.29 0.31 0.35 0.34 0.35 0.34 0.30 0.29 0.28 0.27 0.26 0.23 0.21 0.20 0.16 0.16 0.22 0.23 0.20 0.14 0.17 0.24 0.25 0.30 0.27 0.29 0.28 0.30 0.32 0.32 0.33 0.35 0.35 0.36 0.36
0.42 0.43 0.40 0.42 0.32 0.38 0.34 0.29 0.34 0.38 0.43 0.45 0.43 0.46 0.48 0.45 0.32 0.25 0.16 0.22 0.28 0.25 0.30 0.29 0.25 0.28 0.25 0.26 0.24 0.28 0.29 0.29 0.28 0.29 0.27 0.29 0.28 0.28 0.28 0.25 0.27 0.24 0.23 0.23 0.22 0.22 0.21 0.23 0.22 0.23 0.23 0.21 0.23 0.24 0.29 0.33 0.36 0.33 0.30 0.27 0.26 0.25 0.25 0.23 0.21 0.22 0.15 0.13 0.20 0.21 0.20 0.19 0.12 0.15 0.22 0.26 0.24 0.26 0.27 0.28 0.29 0.30 0.31 0.31 0.33 0.33 0.34 0.36
0.42 0.44 0.42 0.40 0.43 0.47 0.38 0.33 0.37 0.45 0.44 0.47 0.43 0.37 0.37 0.22 0.30 0.20 0.18 0.32 0.21 0.24 0.25 0.24 0.26 0.26 0.26 0.27 0.25 0.25 0.25 0.26 0.27 0.26 0.25 0.24 0.25 0.24 0.24 0.22 0.24 0.19 0.19 0.20 0.19 0.24 0.21 0.22 0.23 0.22 0.24 0.21 0.19 0.20 0.26 0.28 0.30 0.29 0.27 0.26 0.21 0.19 0.21 0.18 0.20 0.17 0.15 0.14 0.22 0.23 0.21 0.18 0.15 0.17 0.29 0.28 0.25 0.25 0.29 0.28 0.29 0.30 0.30 0.32 0.33 0.34 0.35 0.36
0.43 0.46 0.47 0.49 0.52 0.49 0.47 0.48 0.49 0.47 0.49 0.48 0.34 0.37 0.22 0.15 0.13 0.22 0.23 0.25 0.21 0.26 0.25 0.27 0.25 0.26 0.25 0.25 0.24 0.25 0.25 0.22 0.24 0.23 0.22 0.22 0.21 0.21 0.22 0.21 0.22 0.20 0.16 0.23 0.18 0.16 0.18 0.20 0.19 0.20 0.22 0.22 0.21 0.16 0.21 0.19 0.24 0.24 0.22 0.22 0.20 0.16 0.15 0.14 0.14 0.15 0.14 0.17 0.21 0.20 0.22 0.15 0.19 0.24 0.28 0.26 0.26 0.27 0.28 0.30 0.30 0.30 0.31 0.31 0.32 0.34 0.35 0.36
0.45 0.47 0.47 0.53 0.55 0.54 0.54 0.54 0.52 0.51 0.42 0.40 0.32 0.22 0.19 0.11 0.13 0.27 0.28 0.24 0.23 0.26 0.27 0.25 0.26 0.26 0.25 0.22 0.23 0.23 0.19 0.20 0.21 0.20 0.19 0.18 0.17 0.19 0.19 0.19 0.19 0.19 0.16 0.17 0.13 0.15 0.13 0.15 0.20 0.19 0.18 0.22 0.20 0.19 0.20 0.21 0.25 0.25 0.25 0.21 0.20 0.19 0.16 0.14 0.14 0.12 0.13 0.14 0.23 0.26 0.18 0.16 0.16 0.23 0.28 0.28 0.29 0.28 0.29 0.29 0.31 0.32 0.33 0.34 0.35 0.37 0.38 0.38
0.45 0.50 0.50 0.55 0.57 0.57 0.55 0.55 0.54 0.51 0.40 0.33 0.25 0.20 0.11 0.08 0.16 0.17 0.22 0.23 0.24 0.25 0.23 0.26 0.23 0.24 0.22 0.23 0.22 0.20 0.20 0.18 0.18 0.18 0.18 0.16 0.18 0.17 0.19 0.18 0.18 0.17 0.19 0.13 0.20 0.13 0.12 0.13 0.22 0.21 0.20 0.22 0.20 0.21 0.21 0.20 0.18 0.21 0.23 0.21 0.17 0.16 0.20 0.15 0.18 0.18 0.17 0.16 0.18 0.21 0.16 0.20 0.20 0.30 0.31 0.29 0.29 0.28 0.29 0.30 0.31 0.32 0.34 0.37 0.37 0.38 0.40 0.40
0.41 0.49 0.55 0.52 0.50 0.48 0.55 0.60 0.56 0.47 0.35 0.26 0.19 0.12 0.09 0.11 0.13 0.18 0.20 0.24 0.25 0.22 0.22 0.24 0.24 0.21 0.21 0.21 0.21 0.19 0.21 0.17 0.17 0.17 0.17 0.17 0.17 0.17 0.18 0.18 0.18 0.18 0.17 0.14 0.18 0.13 0.14 0.12 0.17 0.18 0.20 0.20 0.21 0.22 0.22 0.21 0.13 0.22 0.20 0.16 0.18 0.25 0.21 0.20 0.20 0.21 0.17 0.14 0.12 0.16 0.18 0.19 0.25 0.24 0.24 0.26 0.25 0.26 0.27 0.28 0.30 0.31 0.33 0.35 0.35 0.38 0.41 0.42
0.37 0.40 0.40 0.43 0.43 0.46 0.55 0.57 0.50 0.41 0.29 0.23 0.16 0.11 0.15 0.16 0.16 0.20 0.21 0.19 0.22 0.23 0.23 0.18 0.22 0.19 0.19 0.18 0.19 0.19 0.20 0.20 0.19 0.17 0.16 0.17 0.18 0.19 0.19 0.19 0.21 0.21 0.21 0.17 0.17 0.18 0.13 0.14 0.21 0.18 0.17 0.20 0.22 0.22 0.22 0.22 0.21 0.20 0.16 0.20 0.25 0.26 0.24 0.20 0.15 0.18 0.16 0.13 0.13 0.17 0.16 0.16 0.17 0.15 0.28 0.26 0.23 0.23 0.24 0.25 0.28 0.31 0.33 0.32 0.34 0.37 0.40 0.42
0.31 0.38 0.37 0.36 0.43 0.48 0.53 0.54 0.44 0.40 0.30 0.21 0.13 0.14 0.19 0.18 0.21 0.19 0.21 0.20 0.20 0.22 0.21 0.20 0.24 0.22 0.19 0.19 0.18 0.18 0.21 0.18 0.19 0.18 0.16 0.16 0.18 0.24 0.21 0.21 0.23 0.22 0.22 0.23 0.17 0.21 0.17 0.11 0.14 0.18 0.17 0.19 0.21 0.21 0.19 0.21 0.22 0.19 0.19 0.26 0.17 0.17 0.16 0.20 0.18 0.12 0.12 0.11 0.12 0.14 0.17 0.16 0.15 0.18 0.25 0.25 0.24 0.24 0.24 0.25 0.27 0.29 0.31 0.32 0.34 0.37 0.39 0.43
0.30 0.31 0.28 0.34 0.44 0.46 0.48 0.52 0.39 0.35 0.29 0.18 0.15 0.14 0.21 0.22 0.21 0.20 0.21 0.21 0.21 0.20 0.18 0.21 0.20 0.22 0.20 0.18 0.20 0.20 0.20 0.18 0.18 0.18 0.15 0.18 0.15 0.23 0.22 0.23 0.22 0.23 0.24 0.22 0.20 0.22 0.21 0.12 0.14 0.21 0.19 0.20 0.19 0.17 0.13 0.18 0.21 0.22 0.22 0.19 0.21 0.18 0.16 0.16 0.19 0.17 0.17 0.13 0.14 0.15 0.16 0.15 0.18 0.18 0.24 0.24 0.25 0.26 0.26 0.27 0.28 0.29 0.31 0.32 0.34 0.36 0.37 0.38
0.24 0.21 0.28 0.38 0.42 0.45 0.51 0.43 0.35 0.31 0.22 0.15 0.17 0.19 0.29 0.23 0.21 0.21 0.21 0.21 0.20 0.18 0.20 0.19 0.19 0.20 0.19 0.21 0.19 0.18 0.18 0.18 0.17 0.17 0.14 0.19 0.15 0.23 0.21 0.24 0.21 0.23 0.23 0.23 0.21 0.22 0.19 0.21 0.11 0.18 0.23 0.21 0.14 0.19 0.16 0.17 0.18 0.21 0.18 0.17 0.19 0.18 0.22 0.19 0.19 0.18 0.16 0.15 0.15 0.15 0.14 0.16 0.21 0.27 0.26 0.26 0.28 0.28 0.28 0.28 0.30 0.31 0.32 0.34 0.35 0.37 0.38 0.39
0.22 0.16 0.30 0.41 0.41 0.44 0.43 0.35 0.26 0.23 0.21 0.24 0.20 0.24 0.21 0.20 0.20 0.21 0.21 0.22 0.21 0.23 0.20 0.19 0.19 0.17 0.20 0.17 0.17 0.19 0.18 0.17 0.16 0.15 0.15 0.14 0.12 0.14 0.20 0.20 0.21 0.19 0.20 0.18 0.19 0.21 0.16 0.18 0.13 0.15 0.18 0.17 0.16 0.23 0.24 0.21 0.20 0.20 0.19 0.18 0.20 0.19 0.17 0.15 0.13 0.19 0.18 0.14 0.13 0.13 0.12 0.15 0.29 0.29 0.28 0.29 0.31 0.29 0.30 0.29 0.29 0.31 0.33 0.34 0.35 0.37 0.38 0.38
0.15 0.11 0.24 0.36 0.40 0.41 0.33 0.23 0.24 0.26 0.22 0.20 0.22 0.23 0.21 0.22 0.20 0.20 0.22 0.22 0.21 0.19 0.22 0.21 0.21 0.20 0.19 0.18 0.20 0.19 0.17 0.16 0.16 0.14 0.15 0.12 0.16 0.13 0.22 0.23 0.21 0.21 0.16 0.17 0.20 0.29 0.18 0.17 0.15 0.12 0.13 0.15 0.21 0.23 0.25 0.24 0.23 0.22 0.20 0.18 0.21 0.20 0.19 0.17 0.13 0.15 0.18 0.18 0.19 0.17 0.15 0.14 0.30 0.29 0.30 0.30 0.30 0.29 0.30 0.30 0.30 0.32 0.33 0.34 0.36 0.37 0.38 0.39
0.14 0.13 0.24 0.28 0.35 0.34 0.28 0.21 0.24 0.20 0.19 0.24 0.24 0.22 0.23 0.22 0.20 0.22 0.21 0.22 0.20 0.22 0.21 0.20 0.21 0.19 0.21 0.20 0.20 0.18 0.17 0.16 0.15 0.14 0.16 0.14 0.17 0.18 0.20 0.21 0.23 0.21 0.17 0.19 0.17 0.21 0.22 0.12 0.11 0.13 0.14 0.15 0.18 0.20 0.22 0.23 0.23 0.21 0.21 0.22 0.21 0.18 0.20 0.18 0.17 0.19 0.19 0.19 0.19 0.18 0.15 0.16 0.28 0.34 0.33 0.32 0.32 0.32 0.32 0.32 0.32 0.33 0.35 0.36 0.37 0.38 0.39 0.38
0.16 0.18 0.22 0.26 0.30 0.29 0.20 0.15 0.16 0.18 0.21 0.22 0.22 0.21 0.23 0.21 0.21 0.21 0.21 0.22 0.22 0.21 0.22 0.23 0.21 0.21 0.21 0.21 0.20 0.17 0.18 0.13 0.17 0.14 0.14 0.16 0.17 0.21 0.22 0.22 0.23 0.24 0.19 0.25 0.17 0.30 0.14 0.19 0.15 0.11 0.12 0.15 0.16 0.18 0.14 0.16 0.18 0.18 0.20 0.24 0.23 0.23 0.22 0.22 0.22 0.21 0.17 0.17 0.17 0.16 0.13 0.17 0.31 0.33 0.33 0.31 0.30 0.30 0.30 0.33 0.35 0.35 0.37 0.38 0.39 0.40 0.42 0.42
0.17 0.21 0.22 0.23 0.27 0.25 0.18 0.23 0.19 0.19 0.21 0.20 0.20 0.19 0.19 0.19 0.22 0.23 0.23 0.21 0.23 0.22 0.21 0.20 0.21 0.21 0.19 0.19 0.18 0.18 0.17 0.14 0.16 0.17 0.17 0.16 0.18 0.21 0.22 0.22 0.25 0.25 0.25 0.26 0.25 0.27 0.16 0.15 0.17 0.11 0.08 0.08 0.08 0.09 0.11 0.14 0.17 0.17 0.21 0.20 0.21 0.21 0.23 0.22 0.18 0.19 0.16 0.17 0.19 0.16 0.16 0.20 0.32 0.30 0.30 0.31 0.30 0.29 0.31 0.32 0.36 0.38 0.37 0.37 0.38 0.40 0.41 0.41
0.15 0.11 0.19 0.20 0.22 0.23 0.22 0.26 0.23 0.21 0.19 0.19 0.17 0.21 0.20 0.19 0.22 0.22 0.22 0.21 0.22 0.22 0.21 0.22 0.21 0.21 0.19 0.17 0.16 0.15 0.15 0.17 0.13 0.17 0.15 0.16 0.18 0.20 0.23 0.24 0.25 0.27 0.27 0.25 0.26 0.25 0.19 0.21 0.19 0.16 0.14 0.12 0.14 0.15 0.22 0.19 0.19 0.16 0.18 0.18 0.19 0.19 0.21 0.21 0.21 0.19 0.16 0.20 0.20 0.22 0.21 0.20 0.25 0.29 0.29 0.28 0.29 0.29 0.30 0.31 0.33 0.36 0.38 0.39 0.40 0.40 0.40 0.40
0.23 0.15 0.16 0.15 0.19 0.20 0.19 0.22 0.21 0.21 0.18 0.21 0.17 0.22 0.20 0.21 0.22 0.21 0.24 0.20 0.22 0.21 0.21 0.20 0.20 0.17 0.19 0.17 0.18 0.17 0.17 0.17 0.17 0.17 0.18 0.19 0.21 0.21 0.24 0.25 0.24 0.25 0.26 0.25 0.27 0.24 0.21 0.18 0.20 0.21 0.19 0.18 0.19 0.19 0.21 0.21 0.16 0.16 0.16 0.18 0.20 0.20 0.20 0.19 0.17 0.16 0.21 0.18 0.15 0.19 0.21 0.21 0.20 0.23 0.27 0.29 0.28 0.29 0.31 0.31 0.32 0.35 0.36 0.35 0.37 0.38 0.37 0.37
0.21 0.23 0.27 0.25 0.19 0.16 0.18 0.18 0.20 0.21 0.19 0.20 0.19 0.21 0.19 0.19 0.20 0.20 0.21 0.22 0.22 0.23 0.19 0.20 0.19 0.19 0.19 0.19 0.20 0.16 0.18 0.17 0.19 0.17 0.20 0.21 0.20 0.21 0.21 0.24 0.23 0.24 0.25 0.24 0.27 0.24 0.21 0.18 0.21 0.23 0.21 0.20 0.21 0.21 0.21 0.20 0.20 0.19 0.19 0.19 0.19 0.21 0.21 0.19 0.17 0.19 0.20 0.18 0.16 0.19 0.21 0.22 0.22 0.22 0.24 0.28 0.29 0.29 0.31 0.30 0.33 0.35 0.36 0.37 0.36 0.35 0.35 0.36
0.28 0.27 0.25 0.31 0.23 0.23 0.22 0.21 0.23 0.20 0.21 0.21 0.20 0.19 0.18 0.18 0.18 0.18 0.19 0.20 0.20 0.20 0.19 0.16 0.18 0.18 0.18 0.19 0.18 0.17 0.20 0.15 0.16 0.21 0.21 0.21 0.21 0.22 0.21 0.21 0.24 0.25 0.25 0.26 0.26 0.27 0.22 0.19 0.21 0.21 0.20 0.20 0.20 0.21 0.22 0.21 0.20 0.20 0.20 0.20 0.21 0.21 0.21 0.22 0.22 0.21 0.20 0.20 0.21 0.21 0.20 0.21 0.23 0.24 0.23 0.26 0.30 0.30 0.30 0.35 0.38 0.36 0.35 0.34 0.35 0.35 0.35 0.35
0.27 0.27 0.24 0.29 0.26 0.23 0.24 0.23 0.22 0.22 0.20 0.22 0.18 0.20 0.19 0.19 0.19 0.19 0.20 0.19 0.17 0.19 0.21 0.19 0.18 0.18 0.19 0.19 0.19 0.19 0.22 0.22 0.22 0.17 0.24 0.22 0.22 0.22 0.22 0.24 0.23 0.25 0.25 0.24 0.24 0.30 0.21 0.19 0.25 0.23 0.21 0.20 0.21 0.22 0.22 0.21 0.20 0.19 0.20 0.21 0.21 0.22 0.22 0.22 0.22 0.23 0.23 0.22 0.23 0.23 0.21 0.19 0.23 0.26 0.25 0.29 0.30 0.32 0.35 0.35 0.34 0.35 0.35 0.35 0.36 0.36 0.36 0.35
0.36 0.39 0.38 0.30 0.23 0.23 0.25 0.23 0.21 0.20 0.20 0.22 0.20 0.22 0.21 0.21 0.20 0.21 0.20 0.22 0.20 0.20 0.21 0.21 0.21 0.20 0.21 0.21 0.21 0.21 0.23 0.23 0.24 0.24 0.25 0.25 0.21 0.25 0.23 0.25 0.24 0.24 0.24 0.24 0.26 0.28 0.25 0.21 0.26 0.23 0.18 0.17 0.20 0.20 0.20 0.20 0.19 0.18 0.18 0.19 0.20 0.20 0.19 0.21 0.21 0.23 0.23 0.20 0.21 0.21 0.19 0.19 0.24 0.27 0.26 0.29 0.28 0.27 0.28 0.30 0.33 0.35 0.36 0.37 0.36 0.37 0.37 0.36
0.38 0.40 0.40 0.35 0.25 0.27 0.25 0.25 0.24 0.22 0.20 0.23 0.23 0.23 0.22 0.21 0.22 0.23 0.20 0.24 0.24 0.24 0.24 0.24 0.25 0.24 0.23 0.23 0.22 0.23 0.25 0.26 0.26 0.27 0.27 0.28 0.28 0.26 0.26 0.25 0.25 0.24 0.25 0.25 0.28 0.25 0.25 0.23 0.21 0.20 0.17 0.16 0.19 0.19 0.18 0.18 0.17 0.15 0.15 0.17 0.19 0.19 0.20 0.21 0.23 0.26 0.26 0.25 0.22 0.20 0.20 0.25 0.30 0.30 0.29 0.28 0.28 0.29 0.28 0.29 0.34 0.38 0.38 0.38 0.37 0.38 0.36 0.36
Wind_Speed
14 14 13 14 14 14 14 14 14 14 14 15 15 15 15 15 15 15 15 14 14 14 14 14 14 15 15 15 15 16 16 16 17 17 17 16 15 15 15 15 15 15 14 14 14 15 15 16 16 16 16 16 17 16 16 17 16 16 16 17 17 17 16 15 16 16 15 15 15 14 14 16 15 15 16 17 20 19 18 17 16 15 14 13 13 13 14 15
13 13 13 13 13 13 13 13 13 14 14 14 14 14 14 14 14 14 14 13 13 13 13 13 14 14 14 14 14 14 15 15 16 16 16 15 14 15 14 14 14 14 14 14 14 15 15 15 15 15 16 16 15 15 16 16 16 16 15 16 17 16 15 15 15 16 16 16 15 14 14 15 15 15 15 16 19 19 19 18 17 16 15 14 14 14 15 15
12 12 12 12 13 13 13 13 13 13 13 13 13 13 13 13 13 13 13 13 13 13 13 13 13 13 13 13 13 13 13 14 14 13 13 13 14 14 14 14 14 14 13 13 13 14 14 14 14 15 15 15 15 15 15 15 15 16 15 15 15 15 15 15 16 16 16 15 15 14 14 14 13 13 14 16 17 19 19 18 18 18 17 16 15 15 16 16
11 11 12 12 12 12 12 12 12 12 12 12 13 13 12 12 12 12 12 12 12 12 12 12 12 12 12 12 12 12 12 13 11 10 11 12 13 13 13 13 13 13 12 12 12 13 13 13 14 14 15 14 14 15 15 14 14 14 15 15 14 13 15 15 15 15 15 15 14 14 13 12 11 12 14 14 16 17 19 18 19 19 18 17 16 16 16 16
11 11 11 11 11 11 11 11 12 12 12 12 12 12 12 12 11 11 11 11 11 11 11 11 11 11 11 11 11 11 11 10 9 9 10 11 11 12 12 12 12 12 11 12 11 12 12 13 13 13 14 13 13 14 14 14 14 13 15 16 14 14 14 13 13 14 14 14 14 13 13 11 11 12 13 14 14 14 16 17 17 18 18 17 16 16 16 16
10 10 10 10 11 11 11 11 11 11 11 11 11 11 11 11 10 10 10 10 10 10 10 10 10 10 10 10 9 9 10 8 7 9 9 9 9 10 11 11 11 11 11 11 11 12 12 13 13 13 13 13 13 13 12 14 14 14 14 15 15 14 14 13 13 13 13 14 14 13 12 11 12 12 12 14 13 11 13 15 15 16 17 17 16 16 16 17
10 10 10 10 10 10 10 10 10 10 10 10 10 10 10 10 9 9 9 9 9 9 9 9 9 9 8 8 8 8 9 7 7 8 7 7 7 8 10 10 10 10 11 11 11 12 12 12 12 12 12 12 13 13 12 13 14 14 13 13 14 14 14 14 13 13 13 14 14 12 12 12 12 10 10 13 12 10 12 15 14 15 16 16 16 16 16 16
10 10 9 9 9 9 9 9 9 9 9 9 9 9 9 9 9 8 8 8 8 8 8 8 8 7 7 7 7 8 6 6 6 7 6 7 7 7 9 9 10 10 11 11 11 11 11 11 11 11 12 11 12 12 12 13 14 15 14 13 13 13 13 13 12 13 13 13 12 12 11 11 10 10 10 12 11 10 11 14 15 15 15 15 16 16 16 16
10 9 9 9 9 8 8 8 8 8 8 8 8 8 8 8 8 8 7 7 7 7 7 7 7 7 6 7 8 7 5 5 5 5 6 7 7 8 8 8 9 10 10 10 10 10 10 10 9 10 11 10 11 12 12 13 12 13 14 13 13 13 13 13 12 13 13 12 11 10 10 10 9 9 10 10 11 10 11 13 15 15 16 16 16 16 16 16
10 9 9 9 8 8 8 8 8 8 8 8 8 8 8 7 7 7 7 7 7 7 7 7 6 6 6 7 8 7 4 4 5 5 6 7 7 8 8 8 9 9 9 9 9 9 9 9 9 9 10 9 11 11 11 12 10 11 13 13 13 14 13 12 12 13 13 11 11 11 9 8 9 10 9 9 11 11 11 12 14 15 16 16 16 16 16 16
9 9 9 8 8 8 8 8 7 8 8 8 8 8 8 7 7 7 7 6 6 6 6 6 6 6 6 7 7 6 5 4 4 4 5 7 7 8 8 8 8 8 8 8 9 8 7 7 8 9 9 9 10 10 11 11 11 11 12 12 13 14 12 12 12 13 13 11 11 11 9 9 10 9 8 8 11 12 12 12 14 15 15 16 16 16 15 15
9 9 8 8 8 8 8 8 8 8 8 8 8 8 8 7 7 7 6 6 6 6 6 6 6 5 6 7 6 4 5 4 4 4 5 6 7 7 7 7 8 8 8 8 8 8 7 6 7 8 8 9 10 10 10 10 11 11 11 11 12 12 11 11 11 12 12 10 10 11 10 10 11 9 7 9 11 12 13 13 14 15 15 15 16 16 15 15
9 9 8 8 8 8 8 8 8 8 8 8 8 8 8 7 7 7 6 6 5 5 5 5 5 5 6 6 5 4 5 5 4 4 5 5 6 6 6 6 7 7 7 7 7 7 8 7 7 8 8 9 9 8 9 10 11 11 11 11 11 11 10 10 11 12 11 10 10 12 11 10 10 9 8 10 11 13 13 13 14 14 15 15 16 16 16 16
9 9 8 8 8 8 8 8 8 8 8 8 8 8 8 7 7 6 6 6 6 5 5 5 5 5 6 5 4 5 5 5 5 5 5 5 5 5 6 6 6 6 6 6 6 6 7 7 7 7 8 9 8 8 10 10 10 10 10 10 10 10 9 8 10 12 11 10 11 12 11 9 9 9 9 10 12 13 13 14 14 14 15 15 16 16 16 16
10 9 9 8 8 8 8 8 8 8 8 8 8 8 8 8 7 6 6 6 6 6 6 5 5 5 6 4 4 5 5 5 6 6 6 6 6 6 6 6 6 6 6 6 6 6 6 7 7 7 7 8 9 9 9 9 10 10 10 9 10 10 8 8 9 10 10 10 11 13 12 9 8 9 10 10 12 13 14 14 15 15 15 16 16 17 16 16
10 9 9 9 9 9 8 8 8 8 8 8 8 9 8 8 8 7 6 6 6 6 6 6 6 6 6 4 5 5 5 6 5 6 7 7 6 6 6 6 6 6 6 6 6 6 6 7 7 7 7 8 9 9 8 9 9 10 10 8 9 10 8 8 9 9 9 10 11 13 13 10 8 10 10 11 12 13 14 14 15 15 15 16 17 17 17 16
10 9 9 9 9 9 9 9 8 8 8 8 8 8 8 8 8 7 6 6 7 6 7 7 6 6 6 5 6 6 5 5 6 6 7 7 6 6 6 6 6 5 6 6 6 6 6 7 7 6 7 8 8 8 9 9 9 9 9 8 8 10 8 8 9 9 10 11 11 12 14 11 9 11 12 12 13 14 14 14 14 15 15 16 17 17 17 17
9 9 9 9 9 9 9 9 9 8 8 8 8 8 7 8 8 7 7 7 7 7 7 7 7 7 6 6 6 5 5 6 6 7 7 7 7 7 6 6 6 6 6 6 6 7 7 7 7 7 7 7 7 8 9 8 7 8 9 8 8 10 10 8 8 8 9 11 11 11 14 13 11 13 14 13 14 15 15 14 14 15 15 16 17 18 18 18
9 9 9 9 9 9 9 9 9 8 8 8 8 8 7 7 7 8 8 8 8 7 7 7 8 7 6 6 6 5 6 6 7 7 7 8 8 7 7 7 7 7 7 7 7 7 7 7 8 8 8 7 7 8 8 7 7 8 8 9 9 9 10 9 7 8 9 11 12 11 13 12 11 13 14 14 15 16 16 15 14 14 15 16 17 18 18 18
9 8 8 9 9 9 9 9 9 9 9 8 8 8 8 8 8 8 9 10 10 9 8 8 9 9 7 6 6 6 6 6 7 7 8 8 8 8 8 8 8 8 8 7 7 7 8 9 9 8 7 7 7 8 8 8 9 9 10 10 10 10 10 9 8 9 9 11 11 11 12 13 12 12 14 15 16 17 18 17 16 16 16 16 17 17 18 18
9 8 8 8 8 8 8 8 8 8 8 8 8 8 7 7 8 8 9 10 10 10 10 9 9 10 9 7 7 6 6 7 7 7 8 8 9 9 8 8 9 9 8 7 7 7 8 9 9 8 7 7 8 8 8 9 9 10 11 11 11 11 10 8 8 9 9 11 11 10 13 14 12 12 12 14 16 18 18 18 17 17 17 17 16 17 18 18
9 9 8 8 8 8 8 8 8 8 8 8 8 7 6 7 8 9 9 10 10 10 10 10 10 10 9 9 8 7 7 7 7 8 8 9 10 9 8 9 10 9 8 8 8 8 10 10 8 7 8 8 9 9 10 9 10 11 11 11 11 11 10 9 9 10 10 11 11 10 13 14 12 12 12 13 14 16 16 17 17 17 18 17 17 17 17 18
9 9 9 9 9 8 8 8 8 8 8 8 7 7 7 7 8 9 9 10 9 9 10 10 10 10 10 9 8 9 9 8 8 9 9 9 10 9 9 9 10 9 9 10 10 9 9 8 7 8 8 9 9 10 10 10 10 11 11 12 11 10 11 10 9 10 10 11 12 12 13 14 14 14 13 13 13 13 14 15 16 17 17 17 17 17 17 17
9 9 9 9 9 9 9 8 8 8 8 9 8 8 8 9 9 9 9 9 8 8 9 9 9 10 9 9 9 10 9 8 9 9 10 11 9 9 9 9 9 9 10 10 11 11 9 7 7 9 9 10 10 10 11 11 11 12 12 13 12 10 12 12 9 10 11 11 13 13 14 15 15 15 14 13 13 13 14 15 16 16 17 17 17 17 17 17
9 9 9 9 9 9 9 9 9 9 9 10 9 8 9 9 9 9 9 8 7 7 8 9 9 9 9 9 9 9 9 9 9 9 10 11 10 8 9 8 9 9 8 9 10 11 9 7 9 10 10 10 10 10 11 12 11 12 13 15 14 12 13 13 12 12 13 12 12 12 13 13 12 13 14 13 13 14 14 15 16 16 17 17 17 18 18 18
9 9 10 10 10 10 10 10 10 10 10 10 9 9 10 10 9 8 8 8 6 6 8 9 9 8 8 9 9 9 10 9 9 9 10 11 10 9 9 9 9 8 8 9 10 10 9 9 10 11 10 10 11 11 11 12 12 12 12 13 14 14 13 13 13 13 13 12 10 11 13 12 11 12 12 13 14 15 14 15 16 16 16 17 18 18 18 19
10 10 10 10 10 10 10 10 10 11 11 10 9 10 10 10 9 8 8 7 6 6 8 8 8 8 8 8 9 9 8 7 8 9 10 10 10 10 9 9 9 8 8 9 9 9 8 9 10 11 11 11 12 11 11 12 13 10 10 11 13 13 13 13 13 13 13 13 12 13 14 14 14 12 11 12 14 15 15 15 15 15 16 16 17 18 18 19
10 10 10 10 11 11 11 11 11 11 11 10 10 11 10 9 8 8 8 7 5 7 8 7 7 8 8 8 9 10 8 7 8 8 9 10 9 10 10 10 9 8 8 9 8 7 8 10 11 11 12 12 12 10 10 12 12 10 9 11 12 12 12 12 13 13 13 13 14 14 13 14 15 13 12 13 15 16 15 14 15 15 16 16 17 18 18 19
11 10 10 10 11 11 11 11 11 11 10 10 11 10 10 9 8 8 9 7 6 7 7 7 8 8 8 8 9 10 9 8 8 7 9 10 9 9 9 9 9 8 9 10 9 8 9 9 10 11 13 12 11 9 10 12 11 9 10 10 11 12 12 13 13 14 13 14 15 14 12 14 14 13 13 13 14 15 14 14 14 15 16 16 17 17 18 19
12 11 11 10 10 10 11 11 11 11 10 10 10 9 9 9 8 9 9 8 7 8 8 8 8 8 9 9 8 8 9 8 6 7 9 9 9 9 8 8 10 10 10 11 11 9 8 8 9 11 12 12 11 9 10 11 10 10 11 11 11 12 12 13 13 13 13 15 14 12 12 14 14 13 12 11 11 12 13 13 14 14 15 15 15 16 17 18
12 12 11 10 10 10 10 10 10 10 10 10 10 9 9 9 9 9 8 8 8 8 8 8 8 8 9 9 8 8 8 7 7 9 9 8 9 9 9 9 9 10 10 10 10 9 9 10 9 9 11 11 12 11 10 10 11 11 12 11 11 12 12 13 13 12 14 14 11 10 11 14 14 13 11 10 11 12 13 13 13 13 14 14 15 15 16 17
13 12 11 10 10 9 10 9 9 10 10 10 10 10 10 9 10 9 7 8 8 8 8 8 7 8 8 8 7 7 8 7 7 8 8 8 9 9 9 9 8 9 10 9 8 9 10 10 8 8 9 10 12 12 10 11 12 13 13 12 12 12 12 13 13 12 13 12 9 9 11 13 15 12 10 10 10 11 11 12 12 13 13 13 14 14 15 15
14 12 12 11 11 10 10 10 10 10 10 10 10 10 10 10 10 9 8 9 8 7 8 8 7 8 9 9 7 7 8 7 7 8 8 9 9 8 8 8 8 9 9 8 8 9 9 8 8 8 7 9 11 12 10 11 12 13 13 12 13 13 12 13 13 13 13 11 9 10 11 13 14 12 10 11 11 10 11 11 12 12 12 12 13 13 13 13
14 13 12 12 12 11 11 11 11 11 10 10 11 10 11 11 10 9 9 9 8 7 8 8 8 8 8 8 8 8 8 7 7 8 8 9 9 8 7 7 8 9 9 9 9 9 9 7 7 7 6 7 10 12 11 10 10 12 12 12 14 13 13 13 12 12 12 10 8 9 11 13 13 11 10 11 11 11 11 11 11 11 11 11 11 11 11 11
14 13 13 12 12 12 12 11 11 11 10 11 11 11 12 11 10 10 10 9 9 9 8 8 9 9 9 8 8 8 8 7 7 8 8 8 9 8 8 7 7 8 9 9 8 8 10 9 6 6 6 7 9 9 10 11 11 11 11 13 14 13 13 13 12 11 12 11 11 12 13 13 11 11 11 11 11 11 11 11 11 11 10 10 10 10 9 9
15 14 14 13 13 12 12 11 11 11 11 11 11 12 12 11 10 10 10 10 10 10 9 10 10 10 10 10 9 9 9 8 9 9 9 8 9 8 8 8 8 8 9 9 8 8 10 9 7 7 8 8 8 8 9 11 10 9 11 13 12 11 12 13 12 11 12 15 15 14 14 14 12 12 13 12 12 11 11 11 11 10 10 9 9 9 9 9
15 14 14 13 13 13 13 12 11 11 12 12 12 12 11 11 11 11 10 11 11 11 12 12 10 10 10 10 10 10 9 10 10 10 10 9 9 9 9 9 8 9 9 9 10 9 10 10 9 9 9 8 9 10 10 11 11 10 11 11 10 11 13 13 13 12 13 15 15 14 16 15 14 13 12 12 13 12 12 12 11 10 10 9 8 9 9 8
15 15 14 14 14 14 13 13 12 13 12 13 13 13 12 12 11 12 11 12 12 12 13 13 11 11 11 11 11 10 10 11 10 11 11 10 10 10 10 10 9 9 9 10 10 9 10 12 10 10 11 10 10 12 12 12 13 13 12 10 11 12 12 12 13 14 14 15 15 15 17 17 16 14 12 13 14 13 12 12 11 11 10 9 9 8 8 8
15 15 15 14 14 14 14 13 13 13 13 14 14 13 12 12 11 12 12 13 13 13 14 14 12 12 13 12 12 11 11 12 11 11 12 12 11 11 11 11 10 10 10 11 11 10 10 12 11 9 9 11 11 12 13 12 12 13 14 14 13 14 14 14 14 14 15 15 15 16 16 15 15 14 13 14 14 13 13 12 12 11 10 9 9 9 9 8
15 15 15 14 14 14 14 14 14 14 14 14 14 13 12 12 12 12 12 13 14 13 13 14 13 14 14 14 14 13 13 13 13 13 13 12 12 12 12 12 12 11 11 12 12 11 11 12 13 11 9 11 12 12 12 12 11 12 14 15 14 14 15 15 16 16 16 16 15 16 17 16 13 12 13 14 14 14 14 13 12 11 11 11 10 10 10 9
15 16 15 14 15 14 15 15 15 15 15 14 14 14 13 13 13 12 12 13 14 13 13 14 14 14 14 14 15 14 14 14 15 14 14 14 14 13 12 13 14 13 13 13 13 12 13 13 15 14 13 13 12 10 12 13 13 14 14 15 15 15 15 16 17 17 17 18 18 18 19 17 13 12 13 13 13 14 14 14 13 13 12 12 11 11 10 10
15 15 15 15 15 15 16 16 15 15 16 15 14 14 13 13 14 13 13 14 14 14 14 14 15 15 15 15 15 15 15 15 15 15 15 14 14 14 13 13 15 15 15 15 14 13 14 15 17 17 17 17 14 12 14 15 16 16 16 17 16 16 17 18 18 17 16 18 18 19 20 17 14 14 14 13 14 14 14 14 14 14 13 13 13 12 12 11
15 15 15 15 16 16 17 17 16 17 17 16 15 15 15 15 15 15 15 15 15 15 15 15 15 15 16 16 16 16 17 16 16 16 15 15 15 14 14 14 16 16 16 16 15 14 15 16 18 18 18 18 17 16 17 17 18 18 18 18 18 18 19 19 19 18 18 18 17 18 19 17 14 14 14 14 14 14 15 16 15 15 15 14 14 14 13 13
15 15 14 15 15 16 18 17 17 17 17 16 16 16 16 16 16 16 16 16 15 16 16 16 16 16 16 16 17 17 17 17 17 17 16 17 15 14 15 15 16 17 16 16 15 16 16 16 17 17 17 17 17 17 17 18 19 19 19 18 18 19 19 19 20 19 20 22 21 20 20 17 14 14 15 15 15 15 16 17 17 17 16 16 15 15 15 15
14 15 14 14 14 15 17 16 16 17 16 17 17 17 17 17 16 16 17 17 16 17 17 16 16 17 17 17 18 18 18 18 18 17 17 17 16 16 16 16 17 17 16 16 17 18 18 18 18 18 19 18 17 17 16 17 17 18 18 19 19 20 20 20 21 21 21 22 22 22 22 18 14 15 17 17 17 18 18 18 19 18 18 17 17 17 17 16
13 13 13 13 13 14 15 15 16 17 17 17 17 17 18 18 17 17 18 18 17 18 18 18 18 18 18 19 19 19 19 19 19 18 18 18 17 17 17 17 17 17 17 17 18 19 20 20 21 22 22 21 21 20 18 18 19 19 19 20 20 20 21 21 21 22 22 22 22 22 23 21 18 17 18 19 19 20 20 20 20 20 19 19 18 18 18 18
12 13 13 13 13 13 14 14 15 16 16 17 17 17 18 18 18 18 18 18 18 18 19 19 19 19 19 19 20 20 20 20 20 20 20 19 18 18 18 19 18 18 19 19 19 20 21 21 23 24 25 25 25 25 23 22 24 25 24 24 23 22 23 23 24 24 23 22 23 22 22 23 22 21 20 20 20 21 21 22 22 21 21 20 20 20 20 20
12 12 12 13 13 13 13 14 14 15 15 16 16 16 16 17 17 17 17 17 18 18 18 18 19 19 19 19 20 20 20 20 21 21 20 20 20 19 19 20 20 20 21 20 20 20 21 23 23 24 25 26 26 26 26 25 25 26 26 26 26 25 25 25 26 27 25 25 25 24 24 24 23 22 23 22 22 23 23 23 23 22 21 21 21 22 22 22
11 12 12 13 14 13 13 14 15 15 14 15 15 16 16 16 16 16 16 17 17 17 18 18 18 18 18 19 20 20 20 20 20 20 20 20 20 20 20 20 20 20 21 20 20 20 21 22 23 24 26 27 27 27 27 27 27 27 28 28 27 27 28 27 27 27 28 29 29 28 28 28 25 25 25 23 23 24 24 23 22 22 23 23 23 23 23 23
11 11 12 13 13 13 14 14 15 15 15 15 15 15 15 16 16 15 16 16 17 17 17 18 17 17 17 18 18 18 18 19 19 18 19 20 20 20 20 20 19 19 20 20 20 20 21 22 22 23 26 27 27 27 27 27 28 29 29 29 28 28 28 28 28 27 28 29 29 29 30 29 27 27 26 23 22 24 24 24 24 25 24 24 24 24 24 24
10 11 12 13 13 13 14 14 14 15 14 14 15 15 15 15 15 15 15 15 16 16 16 17 17 17 18 17 17 17 17 19 19 19 19 20 19 19 20 20 19 20 20 20 20 20 21 22 22 23 26 26 26 27 27 27 29 31 31 30 29 29 28 28 27 27 27 28 29 29 30 29 27 27 27 25 24 25 26 26 26 26 25 25 25 25 25 25
10 11 12 13 12 13 14 14 14 15 14 14 15 15 15 15 15 16 16 15 15 15 16 17 17 18 18 17 16 17 18 19 20 20 20 20 20 21 21 21 21 21 21 21 21 21 22 22 23 23 25 25 24 24 24 25 27 28 28 27 27 29 29 29 28 28 28 29 29 29 28 26 24 24 25 26 26 27 28 28 27 26 26 26 26 26 26 26
Wind_Direction
276 276 276 276 276 276 277 279 281 283 284 286 287 287 287 287 287 285 283 280 277 275 273 272 271 271 270 270 270 270 270 268 264 261 258 259 259 253 255 255 246 244 247 246 244 244 244 244 244 243 243 243 244 244 240 242 242 242 243 244 245 244 245 246 246 247 249 251 256 265 263 263 265 252 245 240 234 232 225 224 226 224 228 227 215 205 202 205
276 275 275 274 275 276 277 278 280 282 284 286 287 288 287 287 286 284 282 280 277 275 273 272 271 271 270 270 270 270 270 266 262 260 258 258 256 251 251 250 241 239 243 244 242 243 243 242 240 239 241 242 242 241 239 240 239 241 243 243 245 245 246 249 249 250 250 254 261 266 265 264 264 254 244 239 230 226 223 221 221 220 221 217 209 205 204 205
275 274 273 274 275 275 276 277 280 282 284 286 287 287 287 287 286 283 282 280 277 274 272 271 271 270 270 270 270 270 268 263 259 257 257 257 254 249 247 244 237 235 241 244 243 243 245 242 239 238 240 242 241 240 238 237 238 240 242 243 244 246 249 250 249 249 250 255 261 264 266 264 258 249 243 238 229 224 223 220 218 218 215 211 207 206 206 206
275 274 274 274 274 274 276 278 280 283 284 286 286 287 288 287 285 283 281 279 277 274 271 271 270 270 270 270 270 268 264 258 256 257 258 260 254 245 242 238 232 233 239 242 242 242 243 240 237 238 240 241 240 239 238 235 237 239 238 242 246 247 249 249 248 248 250 253 258 261 263 262 254 244 241 236 229 225 223 221 220 217 211 207 207 207 208 208
275 274 274 274 274 275 277 279 281 283 284 285 286 286 287 287 285 283 281 278 276 273 271 270 269 271 270 270 268 262 259 257 256 260 264 262 251 239 234 232 229 232 236 237 238 239 239 237 235 236 238 240 237 236 237 233 236 240 238 243 248 248 248 248 248 248 249 250 252 256 259 260 254 243 238 232 228 227 223 219 220 216 208 205 204 206 208 208
276 275 275 275 275 276 277 280 282 284 285 286 287 286 286 286 285 284 282 279 276 273 271 270 269 270 270 269 263 255 256 257 260 263 265 258 242 230 227 227 228 230 231 234 237 238 237 234 234 235 237 239 235 234 236 232 235 240 239 241 245 246 247 247 249 248 247 246 249 254 256 257 253 244 235 229 228 229 223 218 215 210 206 204 203 206 207 206
278 276 276 277 276 276 278 280 282 284 286 287 289 288 286 286 285 284 282 280 277 275 272 270 268 267 268 265 256 250 251 257 266 264 257 245 231 223 223 224 226 226 229 234 236 237 235 233 234 235 236 238 234 233 236 233 233 239 240 240 243 245 245 245 247 247 243 245 250 253 253 250 248 242 231 225 224 223 220 214 206 202 202 201 202 205 205 204
278 277 277 277 277 277 278 280 282 284 286 288 290 291 289 287 286 285 282 280 278 275 271 268 265 264 263 259 251 245 247 263 269 259 242 230 222 218 219 221 223 225 229 234 236 235 232 231 233 233 236 237 233 231 233 234 234 236 241 242 242 242 242 243 246 245 242 244 247 247 246 243 240 235 227 222 215 211 211 205 199 196 197 199 201 203 203 204
278 277 276 276 276 276 278 280 282 284 286 288 290 292 292 290 287 285 282 279 277 274 271 266 261 261 258 250 250 246 249 266 262 246 227 219 217 215 218 221 222 224 228 232 234 232 230 231 231 233 237 234 230 231 230 233 234 234 238 241 241 241 243 245 246 242 239 239 240 239 236 231 227 224 220 216 207 202 202 198 196 194 195 198 201 202 203 203
278 276 274 273 274 275 278 280 282 285 287 289 291 291 291 290 288 286 284 279 275 272 268 263 258 257 252 244 249 248 247 257 248 234 220 215 216 216 221 223 220 223 225 227 229 228 230 231 230 232 235 230 230 232 229 233 238 236 239 242 243 245 246 246 242 237 234 233 233 232 229 221 216 219 217 209 204 201 196 195 196 196 196 197 200 202 204 204
278 275 272 271 271 274 276 278 281 284 287 291 291 289 288 287 286 284 284 280 275 272 266 261 255 254 249 247 253 248 239 246 238 227 216 212 218 221 224 222 220 222 221 222 224 224 228 230 230 232 233 230 228 230 230 236 241 239 242 244 243 243 242 240 235 229 229 229 227 226 224 217 214 219 216 204 203 202 199 199 199 200 200 199 199 202 205 207
278 275 272 270 270 272 273 275 279 283 287 289 289 288 285 284 283 282 282 280 276 272 266 258 252 251 249 249 254 243 231 239 233 223 214 214 222 227 228 226 225 225 220 220 220 222 227 230 236 236 234 231 228 228 231 237 241 240 242 245 240 236 233 232 228 223 224 225 224 223 222 217 215 218 211 204 205 205 206 205 203 203 203 201 201 204 209 211
278 275 272 271 271 271 272 273 276 281 284 286 288 287 283 281 280 279 278 277 276 272 267 258 249 246 250 249 242 232 231 236 230 222 217 216 220 223 224 224 224 222 221 220 217 224 228 229 241 242 235 233 231 233 237 238 240 239 238 242 240 231 227 226 223 219 220 225 224 222 223 217 214 217 212 208 209 208 209 209 208 207 206 206 206 209 213 214
276 274 272 271 270 271 273 274 277 279 281 284 285 284 282 279 278 278 275 273 273 269 263 257 246 243 250 245 234 233 234 233 227 223 221 216 214 212 211 212 212 213 217 218 217 227 229 227 239 240 234 236 237 239 238 234 233 234 234 235 233 227 220 219 221 219 218 224 224 223 226 219 211 217 217 215 214 213 214 214 214 213 212 212 212 215 217 217
274 272 271 269 269 270 273 276 278 279 281 282 282 281 279 275 274 273 272 272 271 267 259 253 246 246 246 236 235 235 229 230 229 227 224 217 214 210 207 208 211 214 218 221 222 226 225 223 233 237 232 234 237 238 235 229 227 229 231 227 223 225 218 212 219 222 218 219 222 225 228 224 218 222 223 222 222 220 221 219 219 219 218 218 218 220 221 220
273 271 269 268 267 268 271 274 277 278 281 282 282 280 275 272 270 265 268 271 268 263 256 251 244 248 251 237 229 229 228 233 231 228 224 221 222 212 204 206 212 221 224 227 227 224 223 224 232 240 236 231 233 237 234 229 225 225 233 229 221 226 222 210 215 222 221 222 225 227 232 234 228 226 227 228 228 227 228 225 224 225 223 223 224 224 224 223
272 270 268 266 266 267 268 270 273 276 279 281 283 280 274 271 266 258 264 270 268 262 256 254 245 248 253 238 230 229 231 235 231 228 222 222 224 211 205 209 214 225 226 228 229 225 226 227 230 235 235 234 235 235 234 232 226 223 231 232 224 229 229 215 212 223 230 230 229 230 236 243 238 232 232 232 233 233 232 230 228 228 228 228 229 228 226 225
272 269 267 266 265 265 265 267 269 271 275 278 280 279 275 272 264 254 260 270 267 259 255 249 243 247 243 231 236 237 236 235 227 226 222 220 223 219 220 223 220 219 217 223 230 227 229 232 235 236 233 233 232 232 236 237 232 226 228 231 226 226 230 226 220 228 235 233 233 234 237 244 245 240 237 236 236 237 235 234 233 232 231 231 231 230 229 227
273 270 267 265 264 263 262 263 266 268 272 274 276 276 273 272 264 253 259 265 257 254 254 241 238 251 245 230 238 246 243 234 223 224 221 219 224 227 231 233 227 223 225 230 229 230 237 237 237 239 234 232 233 239 247 248 243 238 234 237 233 225 228 230 230 236 241 239 237 238 240 245 249 243 240 239 239 239 238 237 238 236 235 233 232 232 231 229
275 270 267 265 264 263 261 261 264 267 270 270 272 272 271 275 267 258 263 259 251 257 262 247 244 252 246 233 239 245 239 229 224 223 218 218 222 225 231 236 234 234 238 238 231 235 246 243 239 241 241 239 240 245 251 250 245 242 238 237 236 235 232 228 233 239 245 245 240 241 247 249 252 249 242 241 241 240 238 237 237 237 237 236 234 233 232 230
275 270 267 266 265 263 260 262 265 267 268 267 269 271 275 282 276 273 275 260 249 255 258 250 248 250 246 241 244 245 236 228 226 221 218 220 222 225 231 235 238 238 237 239 239 241 248 247 242 243 248 245 241 242 244 244 241 238 238 237 234 236 234 229 236 241 245 248 243 245 252 250 252 253 245 241 241 240 237 235 235 235 236 238 237 235 234 232
275 271 267 265 264 263 262 265 266 266 266 264 266 269 274 281 279 278 276 264 253 251 251 246 246 248 245 242 243 243 238 229 222 219 222 223 225 231 234 235 242 241 235 238 241 241 246 247 240 241 245 242 240 239 239 241 240 238 238 238 237 235 234 235 238 240 246 249 249 253 255 253 253 254 249 243 242 240 237 235 234 234 235 237 238 237 235 232
276 270 267 264 262 263 264 266 266 265 263 263 266 270 274 280 281 276 267 264 257 245 243 242 242 243 238 238 239 236 237 234 226 221 223 226 228 236 239 238 243 243 237 238 242 247 249 243 235 240 243 239 239 238 237 241 241 240 239 238 240 237 238 242 238 239 246 251 256 260 259 258 254 251 249 245 243 241 236 235 235 236 236 237 238 239 237 233
276 268 265 263 260 262 263 264 266 264 262 264 269 273 277 281 283 276 263 261 257 243 241 241 240 239 236 238 236 233 238 242 238 228 222 227 231 237 242 243 245 244 240 240 244 251 252 243 238 241 242 242 242 238 239 244 243 240 241 242 244 242 244 249 248 247 250 250 256 261 261 259 252 247 246 241 240 240 235 233 235 236 237 239 240 241 240 237
276 268 265 263 260 260 261 263 265 264 263 264 268 272 277 282 282 274 260 256 251 239 235 233 233 236 235 236 235 238 243 242 243 236 225 230 235 237 242 245 247 245 241 240 245 249 250 248 244 242 244 244 244 243 241 246 247 242 241 243 246 247 246 249 252 254 256 251 252 260 262 258 248 244 244 238 237 237 234 233 235 236 237 239 241 242 242 241
279 271 266 263 262 259 261 264 262 263 264 263 266 273 278 283 279 267 257 252 241 233 232 228 229 232 233 235 233 239 245 241 243 239 229 231 238 243 243 240 246 249 243 244 249 252 249 247 246 247 248 246 247 249 242 243 250 248 241 239 242 246 245 247 250 253 257 256 253 258 262 259 252 246 241 239 239 237 234 235 237 237 238 240 241 242 243 242
284 275 268 266 262 258 263 268 263 263 266 263 267 274 279 281 273 258 253 246 235 239 234 226 232 234 235 239 234 237 245 238 236 234 230 231 234 242 244 239 243 245 241 246 250 248 245 242 243 247 249 247 249 251 243 241 248 251 245 239 238 241 242 245 249 252 258 261 257 255 258 260 258 250 241 242 244 239 235 236 238 238 240 241 243 244 245 245
286 277 271 267 262 260 266 269 265 265 267 267 269 273 277 274 260 249 250 246 239 241 232 225 234 234 235 241 235 238 246 239 238 233 226 229 232 239 242 241 246 240 236 248 252 247 247 247 245 247 250 249 250 253 245 241 245 251 250 244 240 240 243 247 252 256 258 263 261 254 251 257 257 250 244 245 246 242 238 239 242 242 242 244 246 248 249 250
286 277 271 266 264 264 266 267 266 266 266 268 271 273 271 261 251 248 249 249 242 236 231 228 231 231 234 237 232 236 240 242 248 234 220 226 232 241 246 243 246 244 239 250 259 258 254 256 256 253 251 250 252 255 250 244 244 247 244 242 241 242 247 250 255 259 257 260 263 253 247 257 259 250 243 245 245 243 241 245 248 247 247 249 251 253 255 255
286 276 271 265 265 267 266 264 263 264 265 267 270 269 260 250 249 246 242 244 239 231 232 233 233 236 235 231 228 231 233 235 237 223 219 226 229 236 246 245 246 249 247 252 259 259 253 254 260 257 254 253 250 249 251 249 243 238 237 240 243 244 250 253 256 260 260 260 260 250 246 257 261 252 244 247 250 248 248 250 251 251 253 255 257 260 261 262
286 276 267 262 266 268 266 263 261 262 263 266 267 260 252 248 249 247 241 240 238 230 231 232 235 237 231 227 227 224 224 227 227 224 224 227 228 231 238 243 246 248 249 250 252 254 249 248 254 256 254 251 244 242 247 247 241 237 239 243 245 247 252 255 253 254 258 260 257 248 247 253 256 253 246 248 252 250 250 253 254 256 258 261 264 266 268 268
287 274 262 260 267 267 265 266 264 263 262 263 261 253 249 248 246 246 240 235 237 234 232 234 235 230 224 224 225 221 224 229 231 232 233 233 233 236 241 248 249 247 249 248 249 256 254 249 251 253 251 245 240 239 240 241 241 242 243 244 247 249 252 255 253 252 257 258 253 251 252 252 255 255 247 247 252 250 250 253 254 258 262 267 268 269 270 270
287 271 259 259 264 265 266 268 265 262 262 260 255 249 249 249 246 244 235 233 240 238 234 236 233 228 225 223 222 225 229 233 233 233 236 238 238 238 243 251 253 250 253 254 257 262 256 243 241 245 246 241 238 236 238 241 239 240 242 243 247 252 253 255 257 258 260 258 253 253 254 255 256 254 251 252 255 252 250 250 252 256 263 268 269 270 271 272
283 267 259 260 261 263 266 267 264 260 260 257 250 246 246 248 247 243 236 235 239 234 232 234 230 226 228 227 227 231 232 231 233 234 234 236 238 237 237 242 247 248 251 254 257 260 257 245 234 241 247 241 237 239 248 252 242 240 245 247 251 254 256 259 261 261 263 260 250 248 253 257 256 253 254 256 253 248 247 248 249 253 259 264 267 270 271 273
278 264 261 260 260 263 265 264 261 256 255 253 248 244 244 246 244 239 236 235 234 231 230 234 233 229 227 227 229 234 237 234 233 236 239 240 240 241 240 242 248 248 248 251 250 251 256 253 242 248 254 246 243 244 248 254 250 245 247 250 253 255 256 260 264 267 271 269 259 254 257 260 259 255 255 255 249 245 246 247 247 251 257 260 264 269 273 276
272 262 260 259 259 263 263 260 257 253 253 251 247 246 247 249 247 241 239 240 238 235 232 231 235 235 230 228 229 230 237 241 239 239 241 242 243 244 244 248 254 252 250 252 251 247 252 253 243 245 249 247 253 251 242 247 253 249 248 250 253 257 258 259 263 264 266 267 264 260 259 259 258 256 251 249 247 244 245 247 247 250 255 257 262 269 272 276
268 261 258 257 261 263 259 256 254 252 252 250 248 250 251 250 249 245 243 243 241 241 239 236 236 238 234 231 231 229 235 241 241 243 242 241 245 247 244 247 254 258 257 256 255 253 256 258 250 247 251 249 251 254 246 247 253 253 254 254 252 257 258 257 262 262 260 264 264 258 257 258 260 258 248 242 243 243 245 245 244 247 252 256 260 266 270 273
267 261 255 256 262 260 254 253 253 252 251 250 250 252 252 249 247 246 246 245 242 240 241 241 239 240 239 237 234 233 239 242 241 245 245 242 246 250 247 246 250 258 260 257 255 255 257 260 255 249 254 252 247 253 252 248 251 255 260 259 255 259 258 253 259 263 262 266 266 260 258 259 260 256 245 241 242 241 241 241 241 244 251 256 258 262 268 270
264 258 252 256 263 257 250 251 253 252 251 251 251 251 250 247 245 246 247 246 243 240 242 243 241 241 241 241 241 240 243 246 246 248 249 247 248 250 251 250 250 255 258 257 258 258 256 258 257 250 253 256 252 252 253 250 249 252 257 257 256 261 262 258 259 263 265 267 268 267 263 262 263 258 248 244 241 237 237 239 241 245 252 256 258 262 267 269
262 257 252 255 262 256 249 251 252 251 250 251 253 251 248 245 243 245 248 247 244 243 245 243 242 243 242 243 247 246 245 248 250 250 250 249 249 250 252 253 254 256 257 257 259 259 256 256 258 254 253 258 256 252 256 259 256 254 255 255 255 258 262 264 262 260 263 266 267 269 267 266 269 265 255 244 236 236 240 241 244 248 251 255 257 260 263 265
260 257 252 256 261 255 249 250 250 250 250 251 253 250 248 248 245 242 245 247 246 247 248 246 244 245 244 244 246 246 246 248 249 250 251 248 249 252 253 255 258 259 259 257 256 258 259 257 258 259 258 259 259 256 261 266 264 263 262 260 259 259 260 264 264 260 261 264 266 268 270 271 271 267 260 246 238 242 244 243 245 247 249 252 255 257 258 260
259 256 255 259 260 253 248 249 249 250 251 251 251 249 250 251 248 244 244 246 247 247 247 247 246 246 246 247 248 247 248 250 249 250 252 250 251 254 255 258 258 258 261 261 259 261 263 261 260 260 260 261 263 261 261 263 265 265 264 263 264 263 260 262 265 266 264 265 267 267 268 270 269 266 262 252 248 249 246 244 244 245 248 250 250 252 253 254
261 259 257 261 260 251 247 249 249 250 250 250 251 250 251 250 248 247 246 247 248 248 247 247 247 248 248 249 250 248 249 251 251 253 254 252 252 257 260 260 258 257 260 261 260 261 263 262 261 262 262 262 263 260 259 261 262 263 262 261 263 264 264 264 267 270 267 265 266 266 265 267 267 263 260 256 254 251 248 246 244 245 248 249 248 250 251 252
264 261 258 262 260 249 247 250 250 250 249 249 250 248 249 251 251 250 249 250 252 251 250 250 249 251 251 250 251 250 250 252 253 254 255 254 253 257 261 262 260 259 261 263 263 262 263 263 262 264 265 263 262 260 259 259 259 260 261 262 263 265 266 267 267 268 265 263 264 264 265 267 265 260 258 256 255 252 250 249 247 247 248 248 248 250 251 252
263 259 257 262 261 251 250 254 254 252 249 248 249 248 248 250 252 254 254 254 255 255 254 253 252 253 253 251 252 252 251 254 256 255 255 254 253 257 261 263 263 261 264 268 267 264 264 264 263 264 265 264 264 265 266 266 262 261 262 263 263 264 265 266 267 264 263 265 263 261 264 266 262 257 256 256 256 254 252 251 249 248 248 247 248 250 251 252
264 259 257 258 260 255 253 255 256 254 251 250 249 250 251 250 250 255 256 255 256 257 256 255 254 254 252 251 252 252 251 253 256 257 256 254 254 257 260 262 263 264 265 268 267 264 264 264 263 263 263 265 267 269 272 274 269 266 267 265 263 263 263 265 265 263 264 267 263 260 264 265 259 255 255 256 257 256 253 251 249 248 248 248 249 251 253 254
265 263 263 259 258 256 253 255 257 255 253 253 252 252 253 252 251 253 255 256 257 257 257 257 255 254 253 252 252 253 253 252 254 255 256 256 256 258 260 260 262 265 265 265 266 265 264 264 263 263 263 265 268 269 271 272 269 268 270 268 266 265 262 261 261 263 267 267 263 264 267 264 260 260 259 257 257 258 256 252 249 248 248 249 251 253 255 257
268 263 264 261 258 257 256 258 260 256 254 254 254 254 254 253 252 253 254 256 256 256 257 255 254 255 255 254 254 254 253 253 253 254 255 256 257 257 258 258 259 263 264 263 265 265 265 266 265 264 265 266 267 268 268 268 267 267 267 267 267 265 263 261 261 261 263 264 264 267 268 265 263 265 264 260 258 259 258 253 250 249 249 251 253 255 256 258
272 265 264 262 259 260 261 261 260 257 256 256 255 255 256 254 253 254 257 257 254 256 258 255 253 256 256 256 256 254 253 255 254 253 255 256 257 257 258 258 259 260 260 262 265 265 266 267 266 266 268 268 267 267 267 266 266 266 265 265 265 264 263 263 263 262 261 262 263 266 266 265 264 267 267 263 260 260 259 254 250 250 251 253 255 256 257 258
276 270 268 264 260 262 263 262 259 256 256 257 256 256 257 257 256 255 259 261 258 257 259 256 254 257 258 257 256 255 258 261 259 257 259 258 257 258 259 261 262 260 260 264 265 265 266 268 268 269 270 269 268 267 266 265 266 266 265 264 263 264 263 263 264 263 262 262 263 264 265 265 264 264 264 263 261 260 256 253 252 253 253 254 255 256 256 257
282 275 271 266 263 265 266 263 260 258 257 258 258 258 258 259 258 257 258 262 262 260 261 260 258 258 257 256 257 259 262 264 263 263 263 261 261 262 261 263 264 263 264 266 266 266 267 268 269 269 269 269 269 267 266 268 269 268 266 264 263 263 263 263 263 262 261 262 263 263 264 266 265 262 259 259 259 258 256 255 255 254 253 254 254 255 255 256
290 280 274 269 265 267 267 263 261 259 257 260 262 259 260 260 259 258 257 259 261 263 264 264 262 259 256 256 260 264 266 265 265 265 264 263 263 264 263 264 265 265 266 267 267 268 267 268 269 270 269 271 271 269 270 272 271 269 267 265 263 263 264 264 263 261 260 261 262 262 264 267 267 262 259 260 260 259 258 257 255 254 253 254 254 254 254 255